Location: Medlow Airstrip Trail, Medlow Bath NSW 2780, Australia
(33.6682°S, 150.3233°E)
Time: 05:07:16
(UTC+11:00)

Vanguard 1 Rocket - Visible Passes

Search period start: 20 October 2019 00:00
Search period end: 30 October 2019 00:00
Orbit: 650 x 4226 km, 34.3° (Epoch: 17 October)

Date Brightness Start Highest point End Pass type
(mag) Time Alt. Az. Time Alt. Az. Time Alt. Az.
20 Oct 7.7 05:13:18 18° WNW 05:15:38 29° NNW 05:20:02 10° NE visible
20 Oct 9.5 20:33:36 10° NNW 20:47:21 30° NNE 20:50:51 26° NE visible
20 Oct 9.9 23:02:36 10° WNW 23:08:13 27° NW 23:08:13 27° NW visible
21 Oct 7.6 04:06:22 36° NNE 04:06:22 36° NNE 04:09:21 10° NE visible
21 Oct 10.2 19:21:25 10° N 19:34:24 22° NNE 19:43:11 10° ENE visible
21 Oct 8.9 21:48:25 10° NW 22:01:50 49° N 22:01:50 49° N visible
22 Oct 8.2 05:16:47 15° WNW 05:18:36 19° NNW 05:22:05 10° NNE visible
22 Oct 9.4 20:34:26 10° NW 20:50:22 39° NNE 20:55:26 27° ENE visible
22 Oct 9.5 23:05:01 10° WNW 23:12:47 37° WNW 23:12:47 37° WNW visible
23 Oct 8.2 04:09:58 23° NNE 04:09:58 23° NNE 04:12:02 10° NE visible
23 Oct 10.2 19:21:13 10° NNW 19:37:25 30° NNE 19:47:28 10° E visible
23 Oct 8.6 21:50:18 10° NW 22:05:44 61° NNE 22:06:20 61° NE visible
24 Oct 10.4 00:22:09 10° W 00:23:42 14° W 00:23:42 14° W visible
24 Oct 8.6 05:20:30 11° NW 05:21:31 12° NNW 05:23:16 10° N visible
24 Oct 9.4 20:35:41 10° NW 20:53:19 49° NNE 20:59:49 24° E visible
24 Oct 9.1 23:07:34 10° WNW 23:17:10 48° WNW 23:17:10 48° WNW visible
25 Oct 8.8 04:13:47 13° NNE 04:13:47 13° NNE 04:14:29 10° NNE visible
25 Oct 10.1 19:21:41 10° NNW 19:40:19 38° NNE 19:51:14 10° E visible
25 Oct 8.5 21:52:26 10° WNW 22:08:40 72° NNE 22:10:35 60° ENE visible
26 Oct 10.2 00:25:00 10° W 00:27:56 19° W 00:27:56 19° W visible
26 Oct 9.3 20:37:16 10° NW 20:56:12 59° NNE 21:03:56 20° E visible
26 Oct 8.8 23:10:15 10° W 23:21:16 58° W 23:21:16 58° W visible
27 Oct 10.0 19:22:38 10° NW 19:43:09 47° NNE 19:54:42 10° E visible
27 Oct 8.7 21:54:46 10° WNW 22:11:37 81° NNE 22:14:32 53° E visible
28 Oct 10.0 00:27:50 10° W 00:31:51 23° W 00:31:51 23° W visible
28 Oct 9.3 20:39:08 10° WNW 20:59:03 69° NNE 21:07:42 17° E visible
28 Oct 8.6 23:12:59 10° W 23:25:02 67° W 23:25:02 67° W visible
29 Oct 9.9 19:23:57 10° NW 19:45:54 57° NNE 19:57:58 10° E visible
29 Oct 8.8 21:57:16 10° WNW 22:14:34 87° N 22:18:08 47° E visible
